When you browse on this site, cookies collect data to enhance your experience and personalize the content and advertising you see.
Visit our Privacy Policy to learn more. By continuing to use the site, you agree to this use of cookies and data.
  • în România
  • Lista ţărilor
  • Pe 7 zile
  • Temperatura apei
  • Hartă satelitară
  • Meteo pe hartă
  • Widget-uri
  • user-avatar
    Intrare

    Meteo pe oră la Byala

    Astăzi, 26 Iunie, Miercuri

    Timp Temperatura Precipitaţii Vânt Presiune Umiditate
    00:00 +22°C° 0.2 mm 6 m/s 754 mmHg 83%
    01:00 +21°C° 0.2 mm 6 m/s 754 mmHg 85%
    02:00 +21°C° 0 mm 7 m/s 754 mmHg 85%
    03:00 +21°C° 0.1 mm 7 m/s 754 mmHg 85%
    04:00 +21°C° 0.1 mm 7 m/s 754 mmHg 85%
    05:00 +21°C° 0.1 mm 7 m/s 754 mmHg 84%
    06:00 +23°C° 0.6 mm 7 m/s 754 mmHg 78%
    07:00 +26°C° 0.6 mm 8 m/s 754 mmHg 71%
    08:00 +28°C° 0 mm 7 m/s 755 mmHg 61%
    09:00 +29°C° 0.2 mm 7 m/s 755 mmHg 57%
    10:00 +31°C° 0.2 mm 8 m/s 755 mmHg 53%
    11:00 +32°C° 0.2 mm 9 m/s 755 mmHg 49%
    12:00 +32°C° 0 mm 9 m/s 755 mmHg 49%
    13:00 +32°C° 0 mm 9 m/s 755 mmHg 49%
    14:00 +32°C° 0 mm 9 m/s 755 mmHg 46%
    15:00 +32°C° 0.1 mm 9 m/s 755 mmHg 49%
    16:00 +31°C° 0.1 mm 8 m/s 755 mmHg 52%
    17:00 +29°C° 0.1 mm 8 m/s 755 mmHg 54%
    18:00 +28°C° 0.1 mm 7 m/s 755 mmHg 64%
    19:00 +26°C° 0.1 mm 6 m/s 755 mmHg 74%
    20:00 +25°C° 0.1 mm 5 m/s 755 mmHg 83%
    21:00 +23°C° 0 mm 4 m/s 755 mmHg 86%
    22:00 +22°C° 0 mm 4 m/s 754 mmHg 89%
    23:00 +22°C° 0 mm 3 m/s 754 mmHg 92%

    Mâine, 27 Iunie, Joi

    Timp Temperatura Precipitaţii Vânt Presiune Umiditate
    00:00 +21°C° 0 mm 3 m/s 754 mmHg 92%
    01:00 +21°C° 0 mm 4 m/s 754 mmHg 92%
    02:00 +20°C° 0 mm 4 m/s 754 mmHg 92%
    03:00 +20°C° 0 mm 3 m/s 754 mmHg 91%
    04:00 +20°C° 0 mm 3 m/s 753 mmHg 90%
    05:00 +20°C° 0 mm 3 m/s 753 mmHg 90%
    06:00 +22°C° 0 mm 3 m/s 753 mmHg 80%
    07:00 +25°C° 0 mm 3 m/s 753 mmHg 70%
    08:00 +27°C° 0 mm 3 m/s 753 mmHg 60%
    09:00 +28°C° 0 mm 3 m/s 753 mmHg 55%
    10:00 +30°C° 0 mm 3 m/s 753 mmHg 49%
    11:00 +31°C° 0 mm 3 m/s 752 mmHg 43%
    12:00 +33°C° 0 mm 3 m/s 752 mmHg 41%
    13:00 +33°C° 0 mm 3 m/s 751 mmHg 39%
    14:00 +34°C° 0 mm 3 m/s 751 mmHg 37%
    15:00 +33°C° 0 mm 3 m/s 750 mmHg 38%
    16:00 +33°C° 0 mm 3 m/s 750 mmHg 39%
    17:00 +31°C° 0 mm 3 m/s 749 mmHg 40%
    18:00 +29°C° 0 mm 3 m/s 749 mmHg 48%
    19:00 +27°C° 0 mm 3 m/s 748 mmHg 56%
    20:00 +25°C° 0 mm 3 m/s 748 mmHg 64%
    21:00 +24°C° 0 mm 3 m/s 748 mmHg 65%
    22:00 +22°C° 0 mm 3 m/s 748 mmHg 67%
    23:00 +22°C° 0 mm 3 m/s 748 mmHg 69%

    Poimâine, 28 Iunie, Vineri

    Timp Temperatura Precipitaţii Vânt Presiune Umiditate
    00:00 +23°C° 0 mm 2 m/s 748 mmHg 72%
    01:00 +23°C° 0 mm 2 m/s 747 mmHg 76%
    02:00 +23°C° 0 mm 2 m/s 747 mmHg 79%
    03:00 +21°C° 0 mm 3 m/s 747 mmHg 80%
    04:00 +21°C° 0 mm 4 m/s 747 mmHg 81%
    05:00 +21°C° 0 mm 4 m/s 747 mmHg 82%
    06:00 +22°C° 0.1 mm 5 m/s 747 mmHg 78%
    07:00 +25°C° 0.1 mm 5 m/s 747 mmHg 75%
    08:00 +26°C° 0.1 mm 6 m/s 747 mmHg 72%
    09:00 +27°C° 0.1 mm 6 m/s 747 mmHg 66%
    10:00 +27°C° 0.1 mm 6 m/s 747 mmHg 61%
    11:00 +28°C° 0.1 mm 6 m/s 748 mmHg 56%
    12:00 +28°C° 0.1 mm 6 m/s 748 mmHg 54%
    13:00 +28°C° 0.1 mm 7 m/s 748 mmHg 52%
    14:00 +28°C° 0.1 mm 7 m/s 748 mmHg 51%
    15:00 +27°C° 0 mm 6 m/s 748 mmHg 52%
    16:00 +26°C° 0 mm 5 m/s 748 mmHg 54%
    17:00 +25°C° 0 mm 4 m/s 748 mmHg 56%
    18:00 +23°C° 0 mm 4 m/s 748 mmHg 59%
    19:00 +23°C° 0 mm 4 m/s 749 mmHg 63%
    20:00 +22°C° 0 mm 4 m/s 749 mmHg 66%
    21:00 +21°C° 0 mm 5 m/s 750 mmHg 64%
    22:00 +20°C° 0 mm 6 m/s 750 mmHg 61%
    23:00 +20°C° 0 mm 7 m/s 750 mmHg 59%

    29 Iunie, Sâmbătă

    Timp Temperatura Precipitaţii Vânt Presiune Umiditate
    00:00 +20°C° 0 mm 7 m/s 751 mmHg 57%
    01:00 +20°C° 0 mm 7 m/s 751 mmHg 55%
    02:00 +20°C° 0 mm 8 m/s 751 mmHg 54%
    03:00 +18°C° 0 mm 7 m/s 751 mmHg 55%
    04:00 +18°C° 0 mm 7 m/s 751 mmHg 55%
    05:00 +17°C° 0 mm 6 m/s 751 mmHg 56%
    06:00 +19°C° 0 mm 6 m/s 751 mmHg 53%
    07:00 +20°C° 0 mm 7 m/s 752 mmHg 50%
    08:00 +21°C° 0 mm 7 m/s 752 mmHg 48%
    09:00 +22°C° 0 mm 7 m/s 752 mmHg 44%
    10:00 +24°C° 0 mm 7 m/s 752 mmHg 40%
    11:00 +26°C° 0 mm 6 m/s 752 mmHg 36%
    12:00 +26°C° 0 mm 6 m/s 752 mmHg 36%
    13:00 +27°C° 0 mm 6 m/s 752 mmHg 36%
    14:00 +27°C° 0 mm 6 m/s 752 mmHg 36%
    15:00 +27°C° 0 mm 6 m/s 752 mmHg 38%
    16:00 +26°C° 0 mm 6 m/s 752 mmHg 40%
    17:00 +26°C° 0 mm 6 m/s 752 mmHg 42%
    18:00 +23°C° 0 mm 5 m/s 752 mmHg 48%
    19:00 +21°C° 0 mm 4 m/s 752 mmHg 54%
    20:00 +20°C° 0 mm 3 m/s 752 mmHg 60%
    21:00 +19°C° 0 mm 3 m/s 752 mmHg 63%
    22:00 +18°C° 0 mm 3 m/s 753 mmHg 66%
    23:00 +18°C° 0 mm 3 m/s 753 mmHg 69%

    30 Iunie, Duminică

    Timp Temperatura Precipitaţii Vânt Presiune Umiditate
    00:00 +18°C° 0 mm 4 m/s 753 mmHg 69%
    01:00 +18°C° 0 mm 4 m/s 753 mmHg 69%
    02:00 +17°C° 0 mm 5 m/s 753 mmHg 70%
    03:00 +16°C° 0 mm 5 m/s 753 mmHg 73%
    04:00 +15°C° 0 mm 5 m/s 753 mmHg 77%
    05:00 +14°C° 0 mm 6 m/s 753 mmHg 81%
    06:00 +16°C° 0 mm 6 m/s 753 mmHg 71%
    07:00 +19°C° 0 mm 6 m/s 753 mmHg 60%
    08:00 +21°C° 0 mm 6 m/s 754 mmHg 50%
    09:00 +23°C° 0 mm 5 m/s 754 mmHg 46%
    10:00 +25°C° 0 mm 5 m/s 754 mmHg 42%
    11:00 +27°C° 0 mm 5 m/s 754 mmHg 38%
    12:00 +27°C° 0 mm 5 m/s 754 mmHg 38%
    13:00 +27°C° 0 mm 5 m/s 754 mmHg 38%
    14:00 +27°C° 0 mm 5 m/s 754 mmHg 39%
    15:00 +28°C° 0 mm 5 m/s 753 mmHg 39%
    16:00 +28°C° 0 mm 5 m/s 753 mmHg 40%
    17:00 +28°C° 0 mm 5 m/s 753 mmHg 41%
    18:00 +26°C° 0 mm 5 m/s 753 mmHg 46%
    19:00 +23°C° 0 mm 4 m/s 753 mmHg 52%
    20:00 +22°C° 0 mm 4 m/s 753 mmHg 58%
    21:00 +21°C° 0 mm 4 m/s 753 mmHg 59%
    22:00 +21°C° 0 mm 4 m/s 754 mmHg 61%
    23:00 +20°C° 0 mm 4 m/s 754 mmHg 62%

    1 Iulie, Luni

    Timp Temperatura Precipitaţii Vânt Presiune Umiditate
    00:00 +20°C° 0 mm 4 m/s 754 mmHg 62%
    01:00 +20°C° 0 mm 4 m/s 754 mmHg 61%
    02:00 +21°C° 0 mm 4 m/s 754 mmHg 60%
    03:00 +20°C° 0 mm 4 m/s 754 mmHg 64%
    04:00 +19°C° 0 mm 4 m/s 754 mmHg 68%
    05:00 +18°C° 0 mm 4 m/s 754 mmHg 71%
    06:00 +21°C° 0 mm 4 m/s 754 mmHg 65%
    07:00 +23°C° 0 mm 5 m/s 754 mmHg 58%
    08:00 +26°C° 0 mm 5 m/s 754 mmHg 52%
    09:00 +27°C° 0 mm 5 m/s 754 mmHg 47%
    10:00 +28°C° 0 mm 4 m/s 755 mmHg 43%
    11:00 +29°C° 0 mm 4 m/s 755 mmHg 39%
    12:00 +30°C° 0 mm 4 m/s 755 mmHg 39%
    13:00 +30°C° 0 mm 4 m/s 754 mmHg 40%
    14:00 +30°C° 0 mm 4 m/s 754 mmHg 40%
    15:00 +29°C° 0 mm 4 m/s 754 mmHg 43%
    16:00 +29°C° 0 mm 4 m/s 754 mmHg 46%
    17:00 +28°C° 0 mm 4 m/s 754 mmHg 49%
    18:00 +26°C° 0 mm 3 m/s 753 mmHg 56%
    19:00 +24°C° 0 mm 3 m/s 753 mmHg 63%
    20:00 +21°C° 0 mm 3 m/s 753 mmHg 70%
    21:00 +21°C° 0 mm 3 m/s 753 mmHg 73%
    22:00 +20°C° 0 mm 2 m/s 753 mmHg 76%
    23:00 +19°C° 0 mm 2 m/s 753 mmHg 80%
    Arată mai mult